Niagara Falls, NY

3:01 PM EST on November 13, 2019 (GMT -0500)
Niagara Falls International

Weather History for KIAG - September, 2019

Change the Weather History Date:

Monday, September 30, 2019

  Actual Average Record
Temperature  
Mean Temperature 60 °F -  
Max Temperature 70 °F 63 °F 78 °F (2002)
Min Temperature 51 °F 44 °F 32 °F (1991)
Degree Days  
Heating Degree Days 4    
Growing Degree Days 10 (Base 50)    
Moisture  
Dew Point 53 °F    
Average Humidity 79    
Maximum Humidity 93    
Minimum Humidity 65    
Precipitation  
Precipitation 0.08 in - - ()
Sea Level Pressure  
Sea Level Pressure 30.16 in    
Wind  
Wind Speed 7 mph (ESE)    
Max Wind Speed 12 mph    
Max Gust Speed -    
Visibility 10 miles    
Events Rain    
Averages and records for this station are not official NWS values.
T = Trace of Precipitation, MM = Missing Value Source: NWS Daily Summary

Daily Weather History Graph

Daily Weather History Graph

Search for Another Location

Airport or City:

Astronomy

Sep. 30, 2019 Rise Set
Actual Time 7:11 AM EDT 6:59 PM EDT
Civil Twilight 6:43 AM EDT 7:27 PM EDT
Nautical Twilight 6:10 AM EDT 8:00 PM EDT
Astronomical Twilight 5:36 AM EDT 8:33 PM EDT
Moon 9:15 AM EDT (9/30) 8:30 PM EDT (9/30)
Length of Visible Light 12h 44m
Length of Day
11h 47m
Waxing Crescent, 5% of the Moon is Illuminated
Sep 30
Waxing Crescent
Oct 5
First Quarter
Oct 13
Full
Oct 21
Last Quarter
Oct 27
New

Hourly Weather History & Observations

Time (EDT) Temp. Dew Point Humidity Pressure Visibility Wind Dir Wind Speed Gust Speed Precip Events Conditions
12:53 AM 54.0 °F 45.0 °F 72% 30.31 in 10.0 mi East 10.4 mph - N/A   Overcast
1:53 AM 54.0 °F 46.9 °F 77% 30.30 in 10.0 mi East 9.2 mph - 0.00 in Rain Light Rain
2:53 AM 54.0 °F 46.9 °F 77% 30.28 in 10.0 mi East 9.2 mph - 0.00 in   Overcast
3:53 AM 52.0 °F 48.0 °F 86% 30.28 in 10.0 mi East 9.2 mph - 0.01 in Rain Light Rain
4:53 AM 52.0 °F 48.0 °F 86% 30.27 in 4.0 mi East 11.5 mph - 0.03 in Rain Rain
5:53 AM 51.1 °F 48.0 °F 89% 30.25 in 10.0 mi East 9.2 mph - 0.04 in Rain Light Rain
6:53 AM 52.0 °F 48.9 °F 89% 30.22 in 10.0 mi East 9.2 mph - 0.00 in   Overcast
7:53 AM 52.0 °F 50.0 °F 93% 30.23 in 10.0 mi East 5.8 mph - N/A   Overcast
8:53 AM 53.1 °F 50.0 °F 89% 30.24 in 10.0 mi ENE 9.2 mph - N/A   Overcast
9:53 AM 55.9 °F 52.0 °F 87% 30.22 in 10.0 mi East 6.9 mph - N/A   Overcast
10:53 AM 59.0 °F 53.1 °F 81% 30.20 in 10.0 mi East 5.8 mph - N/A   Overcast
11:53 AM 62.1 °F 54.0 °F 75% 30.18 in 10.0 mi ESE 4.6 mph - N/A   Overcast
12:53 PM 64.0 °F 55.0 °F 73% 30.17 in 10.0 mi Calm Calm - N/A   Mostly Cloudy
1:31 PM 66.9 °F 55.9 °F 68% 30.14 in 10.0 mi Variable 4.6 mph - N/A   Mostly Cloudy
1:46 PM 66.9 °F 55.9 °F 68% 30.14 in 10.0 mi Variable 3.5 mph - N/A   Mostly Cloudy
1:53 PM 66.9 °F 55.9 °F 68% 30.13 in 10.0 mi Variable 3.5 mph - N/A   Scattered Clouds
2:53 PM 68.0 °F 57.0 °F 68% 30.12 in 10.0 mi South 4.6 mph - N/A   Overcast
3:53 PM 68.0 °F 57.0 °F 68% 30.11 in 10.0 mi South 4.6 mph - N/A   Clear
4:53 PM 70.0 °F 57.9 °F 65% 30.08 in 10.0 mi South 4.6 mph - N/A   Partly Cloudy
5:53 PM 66.9 °F 57.0 °F 70% 30.08 in 10.0 mi North 5.8 mph - N/A   Clear
6:53 PM 63.0 °F 55.9 °F 78% 30.09 in 10.0 mi North 4.6 mph - N/A   Clear
7:23 PM 62.1 °F 55.9 °F 80% 30.08 in 10.0 mi Calm Calm - N/A   Mostly Cloudy
7:53 PM 62.1 °F 55.9 °F 80% 30.09 in 10.0 mi North 3.5 mph - N/A   Overcast
8:53 PM 61.0 °F 55.9 °F 83% 30.06 in 10.0 mi South 4.6 mph - N/A   Mostly Cloudy
9:08 PM 61.0 °F 55.9 °F 83% 30.04 in 10.0 mi SSE 4.6 mph - N/A   Scattered Clouds
9:53 PM 62.1 °F 57.0 °F 84% 30.04 in 10.0 mi Calm Calm - N/A   Mostly Cloudy
10:53 PM 62.1 °F 57.9 °F 86% 30.03 in 10.0 mi Calm Calm - N/A   Clear
11:53 PM 61.0 °F 57.9 °F 90% 30.01 in 10.0 mi SSW 3.5 mph - N/A   Clear